This demonstration page uses our WeatherBlox Daily Observations layout. Learn more.

Left ArrowRight Arrow

Hourly Observations for September 23, 2021

Temp ( °F °C ) Dew Point ( °F °C ) Humidity (%) Winds ( mph kmh ) Pressure ( in mb ) Visibility ( mi km ) Precip ( " mm )
12:54 am 00:54 Clear 56 13.3 40 4.4 55 55 N N/A 30.14 1021 10 16 N/A
1:54 am 01:54 Clear 54 12.2 39 3.9 57 57 S 5 7 30.14 1021 10 16 N/A
2:54 am 02:54 Clear 53 11.7 39 3.9 59 59 SSW 3 6 30.14 1021 10 16 N/A
3:54 am 03:54 Clear 43 6.1 38 3.3 82 82 N N/A 30.12 1020 10 16 N/A
4:54 am 04:54 Clear 47 8.3 39 3.9 74 74 N N/A 30.11 1020 10 16 N/A
5:54 am 05:54 Clear 48 8.9 39 3.9 71 71 N N/A 30.11 1020 10 16 N/A
6:54 am 06:54 Clear 48 8.9 39 3.9 71 71 N N/A 30.11 1020 10 16 N/A
7:54 am 07:54 Sunny 45 7.2 39 3.9 80 80 N N/A 30.11 1020 10 16 N/A
8:54 am 08:54 Sunny 53 11.7 43 6.1 69 69 SSE 6 9 30.09 1019 10 16 N/A
9:54 am 09:54 Sunny 63 17.2 44 6.7 50 50 SSE 10 17 30.07 1018 10 16 N/A
10:54 am 10:54 Sunny 72 22.2 44 6.7 37 37 S 9 15 30.05 1018 10 16 N/A
11:54 am 11:54 Sunny 76 24.4 42 5.6 30 30 S 16 26 30.03 1017 10 16 N/A
12:54 pm 12:54 Sunny 79 26.1 43 6.1 28 28 S 17 28 29.99 1016 10 16 N/A
1:54 pm 13:54 Sunny 81 27.2 43 6.1 26 26 S 14 22 29.96 1015 10 16 N/A
2:54 pm 14:54 Sunny 83 28.3 44 6.7 25 25 S 15 24 29.92 1013 10 16 N/A
3:54 pm 15:54 Sunny 84 28.9 44 6.7 25 25 S 17 28 29.91 1013 10 16 N/A
4:54 pm 16:54 Sunny 84 28.9 45 7.2 25 25 S 15 24 29.90 1012 10 16 N/A
5:54 pm 17:54 Sunny 82 27.8 44 6.7 26 26 S 15 24 29.89 1012 10 16 N/A
6:54 pm 18:54 Sunny 77 25 46 7.8 33 33 S 13 20 29.88 1012 10 16 N/A
7:54 pm 19:54 Clear 66 18.9 46 7.8 49 49 S 9 15 29.91 1013 10 16 N/A
8:54 pm 20:54 Clear 64 17.8 46 7.8 52 52 S 9 15 29.90 1013 10 16 N/A
9:54 pm 21:54 Clear 62 16.7 46 7.8 56 56 S 9 15 29.90 1013 10 16 N/A
10:54 pm 22:54 Clear 61 16.1 46 7.8 58 58 S 9 15 29.90 1013 10 16 N/A
11:54 pm 23:54 Clear 57 13.9 46 7.8 67 67 S 9 15 29.90 1012 10 16 N/A

Powered by AerisWeather